AI4Y Weather Reports


Display with metric or nautical units.
time (UTC)temp
F
wind
direction
speed
MPH
gust
MPH
rain 1hr
in
rain 24hr
in
rain mn
in
humidity
%
barometer
mb
20260502164018 59 316 5.0 10.0 0.00 0.00 0.00 42 1014.1
20260502163018 59 301 5.0 10.0 0.00 0.00 0.00 43 1014.3
20260502162018 58 301 3.0 8.0 0.00 0.00 0.00 45 1014.4
20260502161016 57 292 4.0 9.0 0.00 0.00 0.00 45 1014.5
20260502152016 54 313 3.0 8.0 0.00 0.00 0.00 51 1014.8
20260502151016 54 308 4.0 8.0 0.00 0.00 0.00 51 1014.8
20260502123015 50 307 2.0 5.0 0.00 0.00 0.00 54 1014.6
20260502122015 50 302 3.0 12.0 0.00 0.00 0.00 53 1014.5
20260502121016 50 301 2.0 6.0 0.00 0.00 0.00 53 1014.5
20260502115016 50 297 3.0 8.0 0.00 0.00 0.00 53 1014.1
20260502114016 50 308 4.0 8.0 0.00 0.00 0.00 53 1014.0
20260502113016 50 307 4.0 7.0 0.00 0.00 0.00 53 1013.7
20260502112017 50 305 5.0 11.0 0.00 0.00 0.00 55 1013.7
20260502111017 50 306 3.0 6.0 0.00 0.00 0.00 56 1013.7
20260502110017 50 305 2.0 4.0 0.00 0.00 0.00 56 1013.6
20260502105037 50 301 2.0 4.0 0.00 0.00 0.00 55 1013.7
20260502104038 50 303 3.0 6.0 0.00 0.00 0.00 54 1013.7
20260502103017 50 302 3.0 7.0 0.00 0.00 0.00 54 1013.7
20260502102017 50 306 4.0 7.0 0.00 0.00 0.00 54 1013.8
20260502101017 51 304 5.0 8.0 0.00 0.00 0.00 55 1013.9
20260502091018 51 301 2.0 3.0 0.00 0.00 0.00 65 1013.9
20260502071017 52 308 6.0 13.0 0.00 0.00 0.00 66 1013.0
20260502070017 52 303 4.0 9.0 0.00 0.00 0.00 66 1013.2
20260502065017 52 293 2.0 5.0 0.00 0.00 0.00 66 1013.3
20260502064017 53 301 2.0 4.0 0.00 0.00 0.00 65 1013.1
20260502063018 53 305 4.0 10.0 0.00 0.00 0.00 65 1013.2
20260502062019 53 301 4.0 9.0 0.00 0.00 0.00 65 1013.3
20260502061038 53 308 4.0 9.0 0.00 0.00 0.00 66 1013.4
20260502060101 54 308 4.0 8.0 0.00 0.00 0.00 66 1013.3
20260502055038 53 310 6.0 11.0 0.00 0.00 0.00 68 1013.4
20260502054018 54 309 3.0 6.0 0.00 0.00 0.00 68 1013.4
20260502053035 54 313 2.0 4.0 0.00 0.00 0.00 68 1013.5
20260502052015 55 314 2.0 4.0 0.00 0.00 0.00 67 1013.5
20260502051017 55 306 2.0 4.0 0.00 0.00 0.00 66 1013.5
20260502050017 55 305 3.0 6.0 0.00 0.00 0.00 66 1013.4
20260502045017 55 307 4.0 7.0 0.00 0.00 0.00 66 1013.3
20260502044017 55 306 4.0 8.0 0.00 0.00 0.00 66 1013.3
20260502043017 56 305 3.0 6.0 0.00 0.00 0.00 65 1013.3
20260502042018 57 304 3.0 5.0 0.00 0.00 0.00 64 1013.3
20260502041018 57 302 3.0 5.0 0.00 0.00 0.00 63 1013.3
20260502040018 58 303 3.0 6.0 0.00 0.00 0.00 63 1013.2
20260502035016 58 300 4.0 8.0 0.00 0.00 0.00 63 1013.2
20260502034016 57 301 3.0 8.0 0.00 0.00 0.00 64 1013.2
20260502033016 55 302 3.0 7.0 0.00 0.00 0.00 72 1013.1
20260502032016 55 189 1.0 2.0 0.00 0.00 0.00 79 1013.1
20260502031016 54 170 1.0 2.0 0.00 0.00 0.00 77 1012.9
20260502030017 54 57 1.0 3.0 0.00 0.00 0.00 79 1012.7
20260502025017 55 173 2.0 3.0 0.00 0.00 0.00 76 1012.8
20260502024037 55 303 1.0 3.0 0.00 0.00 0.00 76 1012.8
20260502023017 55 127 1.0 2.0 0.00 0.00 0.00 76 1012.3
20260502022017 55 118 2.0 2.0 0.00 0.00 0.00 76 1012.1
20260502021057 56 116 1.0 3.0 0.00 0.00 0.00 74 1011.8
20260502020037 57 116 2.0 3.0 0.00 0.00 0.00 71 1011.7
20260502015037 57 128 1.0 2.0 0.00 0.00 0.00 69 1011.7
20260502014018 57 92 0.0 1.0 0.00 0.00 0.00 67 1011.8
20260502013017 58 154 0.0 2.0 0.00 0.00 0.00 65 1011.7
20260502012021 58 133 0.0 1.0 0.00 0.00 0.00 64 1011.6
20260502011018 59 94 0.0 2.0 0.00 0.00 0.00 63 1011.6
20260502010018 59 117 1.0 2.0 0.00 0.00 0.00 62 1011.5
20260502005018 59 112 2.0 4.0 0.00 0.00 0.00 62 1011.1
20260502004016 59 101 1.0 3.0 0.00 0.00 0.00 61 1011.1
20260502003016 59 94 2.0 5.0 0.00 0.00 0.00 61 1010.9
20260502002016 59 110 1.0 2.0 0.00 0.00 0.00 60 1010.8
20260502001016 60 170 1.0 3.0 0.00 0.00 0.00 59 1010.6
20260502000016 61 222 1.0 3.0 0.00 0.00 0.00 57 1010.4
20260501235017 62 178 1.0 4.0 0.00 0.00 0.00 55 1010.3
20260501234047 63 215 1.0 3.0 0.00 0.00 0.00 54 1010.4
20260501233017 65 183 2.0 4.0 0.00 0.00 0.00 52 1010.4
20260501232017 65 230 1.0 3.0 0.00 0.00 0.00 52 1010.5
20260501231017 66 187 2.0 4.0 0.00 0.00 0.00 50 1010.4
20260501230017 66 196 2.0 4.0 0.00 0.00 0.00 50 1010.4
20260501225017 67 219 2.0 5.0 0.00 0.00 0.00 50 1010.4
20260501224017 67 191 2.0 5.0 0.00 0.00 0.00 49 1010.4
20260501223018 67 166 4.0 6.0 0.00 0.00 0.00 48 1010.4
20260501222017 68 181 3.0 6.0 0.00 0.00 0.00 47 1010.5
20260501221018 68 156 4.0 6.0 0.00 0.00 0.00 47 1010.5
20260501215018 69 174 3.0 7.0 0.00 0.00 0.00 45 1010.7
20260501214038 70 204 3.0 5.0 0.00 0.00 0.00 43 1010.7
20260501213018 70 209 3.0 5.0 0.00 0.00 0.00 43 1010.7
20260501212018 71 196 2.0 6.0 0.00 0.00 0.00 43 1010.8
20260501211016 71 201 3.0 6.0 0.00 0.00 0.00 43 1010.8
20260501210016 72 178 3.0 6.0 0.00 0.00 0.00 42 1010.9
20260501205016 72 223 2.0 5.0 0.00 0.00 0.00 42 1011.0
20260501204016 71 211 2.0 4.0 0.00 0.00 0.00 44 1011.1
20260501203016 71 194 3.0 6.0 0.00 0.00 0.00 42 1011.3
20260501202016 70 212 2.0 5.0 0.00 0.00 0.00 44 1011.3
20260501201016 71 196 3.0 8.0 0.00 0.00 0.00 43 1011.6
20260501200016 71 209 2.0 5.0 0.00 0.00 0.00 43 1011.8
20260501195017 71 217 2.0 4.0 0.00 0.00 0.00 43 1012.0
20260501194057 70 232 2.0 5.0 0.00 0.00 0.00 43 1012.1
20260501193037 69 235 2.0 7.0 0.00 0.00 0.00 45 1012.5
20260501192037 68 178 3.0 7.0 0.00 0.00 0.00 47 1012.5
20260501191017 70 196 3.0 7.0 0.00 0.00 0.00 41 1012.8
20260501190017 70 198 3.0 8.0 0.00 0.00 0.00 44 1012.8
20260501185038 68 240 2.0 6.0 0.00 0.00 0.00 43 1013.0
20260501184017 67 130 3.0 7.0 0.00 0.00 0.00 46 1013.2
20260501183018 68 152 4.0 7.0 0.00 0.00 0.00 44 1013.4
20260501182018 67 262 2.0 5.0 0.00 0.00 0.00 44 1013.5
20260501181038 67 196 3.0 8.0 0.00 0.00 0.00 45 1013.8
20260501180016 66 212 4.0 7.0 0.00 0.00 0.00 46 1013.9
20260501175036 64 161 2.0 8.0 0.00 0.00 0.00 53 1013.9
20260501174036 64 72 3.0 7.0 0.00 0.00 0.00 47 1014.0
20260501173016 65 182 2.0 5.0 0.00 0.00 0.00 48 1014.5
20260501172016 65 160 2.0 7.0 0.00 0.00 0.00 48 1014.3